Retour au catalogue

STARLINK-35964

ActifCommunicationsVLEO
NORAD 66796·PAYLOAD·🇺🇸 United States

Lancé Dec 1, 2025 depuis Cape Canaveral Space Force Station

Loading…

Prochains Passages (prochaines 24 heures)

TLE

FraisSource: CelesTrak SupGP

Époque: Sep 14, 2026, 22:28 UTC

1 66796C 25278F   26257.93659722  .00001096  00000+0  39698-4 0  2574
2 66796  42.9995 110.7061 0001350 272.1233 325.7500 15.27570208    19

Suivez STARLINK-35964 en temps réel avec AllMySat

Download on the App Store